Wetterdaten: Dienstag, 09.02.2016
Datum Zeit Auen-Temp. Temp gefhlt Luftfeuchte Luftdruck Regen Wind Richtung Richtung Taupunkt Windben
09.02.2016 00:00 5,7 C 5,0 C 78 % 1012,0 hPa 0,0 mm 8,8 km/h (2 Bft) S-SW 202 2,2 C 11,1 km/h (2 Bft)
09.02.2016 00:05 5,7 C 4,9 C 78 % 1013,1 hPa 0,7 mm 9,6 km/h (2 Bft) W 270 2,2 C 20,2 km/h (4 Bft)
09.02.2016 00:10 5,4 C 4,8 C 80 % 1013,1 hPa 0,0 mm 14,2 km/h (3 Bft) W-SW 247 2,2 C 7,0 km/h (2 Bft)
09.02.2016 00:15 5,2 C 4,5 C 81 % 1013,1 hPa 0,0 mm 12,7 km/h (3 Bft) SW 225 2,2 C 26,2 km/h (4 Bft)
09.02.2016 00:20 5,1 C 4,4 C 82 % 1013,1 hPa 0,0 mm 9,6 km/h (2 Bft) W 270 2,3 C 12,9 km/h (3 Bft)
09.02.2016 00:25 5,0 C 4,3 C 82 % 1012,9 hPa 0,7 mm 10,1 km/h (2 Bft) SW 225 2,2 C 25,6 km/h (4 Bft)
09.02.2016 00:30 4,9 C 4,2 C 83 % 1012,9 hPa 0,0 mm 9,3 km/h (2 Bft) S 180 2,3 C 12,2 km/h (2 Bft)
09.02.2016 00:35 4,9 C 4,2 C 83 % 1012,9 hPa 0,0 mm 9,6 km/h (2 Bft) W-SW 247 2,3 C 12,2 km/h (2 Bft)
09.02.2016 00:40 4,9 C 4,1 C 85 % 1012,9 hPa 0,0 mm 10,6 km/h (2 Bft) SW 225 2,6 C 19,2 km/h (3 Bft)
09.02.2016 00:45 4,8 C 4,0 C 85 % 1013,7 hPa 0,0 mm 10,4 km/h (2 Bft) W-SW 247 2,5 C 8,0 km/h (2 Bft)
09.02.2016 00:50 4,7 C 4,1 C 85 % 1013,7 hPa 0,0 mm 8,8 km/h (2 Bft) W-SW 247 2,4 C 9,1 km/h (2 Bft)
09.02.2016 00:55 4,8 C 4,2 C 85 % 1013,7 hPa 0,0 mm 8,3 km/h (2 Bft) SW 225 2,5 C 18,6 km/h (3 Bft)
09.02.2016 01:00 4,9 C 4,1 C 84 % 1013,7 hPa 0,0 mm 9,3 km/h (2 Bft) W-SW 247 2,4 C 14,8 km/h (3 Bft)
09.02.2016 01:05 5,0 C 4,1 C 83 % 1013,4 hPa 0,0 mm 10,1 km/h (2 Bft) W-SW 247 2,4 C 9,6 km/h (2 Bft)
09.02.2016 01:10 4,6 C 4,0 C 82 % 1013,4 hPa 0,0 mm 8,5 km/h (2 Bft) S 180 1,8 C 9,1 km/h (2 Bft)
09.02.2016 01:15 4,6 C 4,1 C 82 % 1013,4 hPa 0,0 mm 6,5 km/h (2 Bft) W 270 1,8 C 5,4 km/h (1 Bft)
09.02.2016 01:20 4,5 C 4,0 C 81 % 1013,4 hPa 0,0 mm 6,0 km/h (2 Bft) W-NW 292 1,5 C 8,0 km/h (2 Bft)
09.02.2016 01:25 4,5 C 4,0 C 81 % 1013,2 hPa 0,0 mm 6,2 km/h (2 Bft) SW 225 1,5 C 9,8 km/h (2 Bft)
09.02.2016 01:30 4,5 C 3,9 C 80 % 1013,2 hPa 0,0 mm 6,2 km/h (2 Bft) W 270 1,4 C 6,0 km/h (2 Bft)
09.02.2016 01:35 4,4 C 3,9 C 79 % 1013,2 hPa 0,0 mm 5,7 km/h (1 Bft) W 270 1,1 C 4,9 km/h (1 Bft)
09.02.2016 01:40 4,2 C 3,8 C 79 % 1013,2 hPa 0,0 mm 4,1 km/h (1 Bft) W-SW 247 0,9 C 4,9 km/h (1 Bft)
09.02.2016 01:45 4,1 C 3,8 C 79 % 1012,9 hPa 0,0 mm 3,6 km/h (1 Bft) W-SW 247 0,8 C 5,7 km/h (1 Bft)
09.02.2016 01:50 4,4 C 3,9 C 79 % 1012,9 hPa 0,0 mm 4,4 km/h (1 Bft) W-SW 247 1,1 C 6,2 km/h (2 Bft)
09.02.2016 01:55 4,5 C 3,9 C 78 % 1012,9 hPa 0,0 mm 5,4 km/h (1 Bft) W-SW 247 1,0 C 9,1 km/h (2 Bft)
09.02.2016 02:00 4,3 C 3,8 C 78 % 1014,1 hPa 0,0 mm 5,4 km/h (1 Bft) SW 225 0,8 C 4,9 km/h (1 Bft)
09.02.2016 02:01 4,3 C 3,8 C 78 % 1009,1 hPa 0,0 mm 5,4 km/h (1 Bft) SW 225 0,8 C 4,9 km/h (1 Bft)
09.02.2016 02:05 4,6 C 3,9 C 78 % 1008,8 hPa 0,0 mm 6,2 km/h (2 Bft) S 180 1,1 C 6,7 km/h (2 Bft)
09.02.2016 02:10 4,5 C 4,0 C 77 % 1008,8 hPa 0,0 mm 5,4 km/h (1 Bft) W-SW 247 0,8 C 3,1 km/h (1 Bft)
09.02.2016 02:15 4,1 C 3,8 C 76 % 1008,8 hPa 0,0 mm 4,4 km/h (1 Bft) W-SW 247 0,3 C 3,6 km/h (1 Bft)
09.02.2016 02:20 4,1 C 3,8 C 77 % 1008,8 hPa 0,0 mm 2,6 km/h (1 Bft) O-SO 112 0,4 C 0,0 km/h (0 Bft)
09.02.2016 02:25 4,2 C 3,8 C 77 % 1008,9 hPa 0,0 mm 2,6 km/h (1 Bft) S-SW 202 0,5 C 4,4 km/h (1 Bft)
09.02.2016 02:30 4,5 C 3,9 C 76 % 1008,9 hPa 0,0 mm 5,4 km/h (1 Bft) W 270 0,6 C 15,3 km/h (3 Bft)
09.02.2016 02:35 4,8 C 4,1 C 76 % 1008,9 hPa 0,0 mm 7,0 km/h (2 Bft) W 270 0,9 C 8,8 km/h (2 Bft)
09.02.2016 02:40 5,1 C 4,3 C 75 % 1008,9 hPa 0,0 mm 8,5 km/h (2 Bft) W-SW 247 1,0 C 5,4 km/h (1 Bft)
09.02.2016 02:45 5,2 C 4,4 C 74 % 1009,2 hPa 0,0 mm 9,3 km/h (2 Bft) W 270 1,0 C 11,9 km/h (2 Bft)
09.02.2016 02:50 5,2 C 4,4 C 74 % 1009,2 hPa 0,0 mm 9,8 km/h (2 Bft) W-SW 247 1,0 C 13,2 km/h (3 Bft)
09.02.2016 02:55 5,2 C 4,2 C 74 % 1009,2 hPa 0,0 mm 11,4 km/h (2 Bft) W 270 1,0 C 14,8 km/h (3 Bft)
09.02.2016 03:00 5,2 C 4,3 C 75 % 1009,2 hPa 0,0 mm 15,0 km/h (3 Bft) W-NW 292 1,1 C 23,0 km/h (4 Bft)
09.02.2016 03:05 5,3 C 4,2 C 75 % 1008,9 hPa 0,0 mm 16,6 km/h (3 Bft) O 90 1,2 C 31,1 km/h (5 Bft)
09.02.2016 03:10 5,1 C 4,1 C 76 % 1008,9 hPa 0,0 mm 17,3 km/h (3 Bft) NW 315 1,2 C 22,0 km/h (4 Bft)
09.02.2016 03:15 5,1 C 4,2 C 77 % 1008,9 hPa 0,0 mm 16,8 km/h (3 Bft) W-SW 247 1,4 C 22,3 km/h (4 Bft)
09.02.2016 03:20 5,2 C 4,0 C 77 % 1008,9 hPa 0,0 mm 18,4 km/h (3 Bft) W-NW 292 1,5 C 26,4 km/h (4 Bft)
09.02.2016 03:25 5,1 C 4,3 C 77 % 1008,9 hPa 0,0 mm 16,8 km/h (3 Bft) W 270 1,4 C 32,9 km/h (5 Bft)
09.02.2016 03:30 4,9 C 3,9 C 78 % 1008,9 hPa 0,0 mm 14,0 km/h (3 Bft) W-NW 292 1,4 C 14,5 km/h (3 Bft)
09.02.2016 03:35 4,8 C 4,0 C 79 % 1008,9 hPa 0,0 mm 14,8 km/h (3 Bft) NW 315 1,5 C 37,0 km/h (5 Bft)
09.02.2016 03:40 4,6 C 3,7 C 80 % 1008,9 hPa 0,0 mm 16,3 km/h (3 Bft) NW 315 1,5 C 8,8 km/h (2 Bft)
09.02.2016 03:45 4,5 C 3,3 C 80 % 1008,9 hPa 0,7 mm 16,1 km/h (3 Bft) W 270 1,4 C 22,8 km/h (4 Bft)
09.02.2016 03:50 4,4 C 3,5 C 81 % 1008,9 hPa 0,0 mm 13,7 km/h (3 Bft) S-SO 157 1,4 C 11,1 km/h (2 Bft)
09.02.2016 03:55 4,3 C 3,3 C 81 % 1008,9 hPa 0,0 mm 11,4 km/h (2 Bft) NW 315 1,3 C 18,9 km/h (3 Bft)
09.02.2016 04:00 4,2 C 3,3 C 81 % 1008,9 hPa 0,0 mm 9,3 km/h (2 Bft) W-SW 247 1,2 C 10,4 km/h (2 Bft)
09.02.2016 04:05 4,2 C 3,2 C 82 % 1008,8 hPa 0,0 mm 10,6 km/h (2 Bft) W-NW 292 1,4 C 25,1 km/h (4 Bft)
09.02.2016 04:10 4,3 C 3,3 C 82 % 1008,8 hPa 0,0 mm 12,2 km/h (2 Bft) W-SW 247 1,5 C 7,0 km/h (2 Bft)
09.02.2016 04:15 4,2 C 3,3 C 82 % 1008,8 hPa 0,0 mm 10,6 km/h (2 Bft) W-SW 247 1,4 C 9,6 km/h (2 Bft)
09.02.2016 04:20 4,3 C 3,4 C 82 % 1008,8 hPa 0,0 mm 10,4 km/h (2 Bft) NW 315 1,5 C 16,3 km/h (3 Bft)
09.02.2016 04:25 4,4 C 3,6 C 82 % 1008,4 hPa 0,0 mm 12,4 km/h (3 Bft) W 270 1,6 C 21,0 km/h (4 Bft)
09.02.2016 04:30 4,4 C 3,6 C 82 % 1008,4 hPa 0,0 mm 12,7 km/h (3 Bft) NW 315 1,6 C 15,5 km/h (3 Bft)
09.02.2016 04:35 4,5 C 3,7 C 82 % 1008,4 hPa 0,0 mm 14,0 km/h (3 Bft) W-SW 247 1,7 C 18,1 km/h (3 Bft)
09.02.2016 04:40 4,3 C 3,2 C 81 % 1008,4 hPa 0,0 mm 12,7 km/h (3 Bft) NW 315 1,3 C 24,1 km/h (4 Bft)
09.02.2016 04:45 4,3 C 3,3 C 81 % 1008,1 hPa 0,0 mm 11,4 km/h (2 Bft) W-SW 247 1,3 C 17,6 km/h (3 Bft)
09.02.2016 04:50 4,0 C 3,3 C 81 % 1008,1 hPa 0,0 mm 9,1 km/h (2 Bft) SW 225 1,0 C 8,3 km/h (2 Bft)
09.02.2016 04:55 4,0 C 3,4 C 81 % 1008,1 hPa 0,0 mm 7,0 km/h (2 Bft) W 270 1,0 C 6,5 km/h (2 Bft)
09.02.2016 05:00 4,0 C 3,4 C 81 % 1008,1 hPa 0,0 mm 7,5 km/h (2 Bft) S-SW 202 1,0 C 7,5 km/h (2 Bft)
09.02.2016 05:03 4,0 C 3,4 C 81 % 1008,1 hPa 0,0 mm 7,5 km/h (2 Bft) S-SW 202 1,0 C 7,5 km/h (2 Bft)
09.02.2016 05:05 3,7 C 3,3 C 81 % 1007,9 hPa 0,0 mm 6,2 km/h (2 Bft) SW 225 0,7 C 4,4 km/h (1 Bft)
09.02.2016 05:10 3,3 C 3,1 C 81 % 1007,9 hPa 0,0 mm 3,6 km/h (1 Bft) N-NO 22 0,4 C 0,0 km/h (0 Bft)
09.02.2016 05:15 3,1 C 2,9 C 81 % 1007,9 hPa 0,0 mm 2,3 km/h (1 Bft) O-SO 112 0,2 C 3,9 km/h (1 Bft)
09.02.2016 05:20 3,0 C 2,7 C 82 % 1007,9 hPa 0,0 mm 0,5 km/h (0 Bft) O-SO 112 0,2 C 0,0 km/h (0 Bft)
09.02.2016 05:25 3,0 C 2,6 C 83 % 1007,9 hPa 0,0 mm 0,8 km/h (0 Bft) O-SO 112 0,4 C 0,0 km/h (0 Bft)
09.02.2016 05:30 3,0 C 2,6 C 84 % 1007,9 hPa 0,0 mm 0,3 km/h (0 Bft) O-SO 112 0,6 C 0,0 km/h (0 Bft)
09.02.2016 05:35 2,7 C 2,3 C 84 % 1007,9 hPa 0,0 mm 0,0 km/h (0 Bft) O 90 0,3 C 0,0 km/h (0 Bft)
09.02.2016 05:40 2,6 C 2,2 C 85 % 1007,9 hPa 0,0 mm 0,5 km/h (0 Bft) N-NO 22 0,3 C 0,0 km/h (0 Bft)
09.02.2016 05:45 2,4 C 2,1 C 85 % 1007,8 hPa 0,0 mm 0,5 km/h (0 Bft) O-SO 112 0,1 C 0,0 km/h (0 Bft)
09.02.2016 05:50 2,3 C 1,9 C 85 % 1007,8 hPa 0,0 mm 0,0 km/h (0 Bft) O-SO 112 0,0 C 0,0 km/h (0 Bft)
09.02.2016 05:55 2,2 C 1,8 C 85 % 1007,8 hPa 0,0 mm 0,0 km/h (0 Bft) N-NO 22 -0,1 C 2,8 km/h (1 Bft)
09.02.2016 06:00 2,1 C 1,8 C 85 % 1007,8 hPa 0,0 mm 0,3 km/h (0 Bft) O-NO 67 -0,2 C 0,0 km/h (0 Bft)
09.02.2016 06:05 2,0 C 1,7 C 84 % 1007,2 hPa 0,0 mm 0,3 km/h (0 Bft) N-NO 22 -0,4 C 0,0 km/h (0 Bft)
09.02.2016 06:10 2,1 C 1,7 C 85 % 1007,2 hPa 0,0 mm 0,3 km/h (0 Bft) O 90 -0,2 C 0,0 km/h (0 Bft)
09.02.2016 06:15 2,1 C 1,7 C 85 % 1007,2 hPa 0,0 mm 0,3 km/h (0 Bft) NO 45 -0,2 C 0,0 km/h (0 Bft)
09.02.2016 06:20 1,9 C 1,6 C 85 % 1007,2 hPa 0,0 mm 0,0 km/h (0 Bft) O 90 -0,3 C 0,0 km/h (0 Bft)
09.02.2016 06:25 2,1 C 1,7 C 86 % 1007,4 hPa 0,0 mm 0,0 km/h (0 Bft) O-NO 67 0,0 C 0,0 km/h (0 Bft)
09.02.2016 06:30 2,2 C 1,8 C 86 % 1007,4 hPa 0,0 mm 0,0 km/h (0 Bft) NO 45 0,1 C 0,0 km/h (0 Bft)
09.02.2016 06:35 2,2 C 1,8 C 86 % 1007,4 hPa 0,0 mm 0,3 km/h (0 Bft) O-SO 112 0,1 C 3,4 km/h (1 Bft)
09.02.2016 06:40 2,2 C 1,8 C 87 % 1007,4 hPa 0,0 mm 0,8 km/h (0 Bft) O-NO 67 0,3 C 0,0 km/h (0 Bft)
09.02.2016 06:45 2,3 C 2,0 C 81 % 1007,0 hPa 0,0 mm 0,5 km/h (0 Bft) O-NO 67 -0,6 C 0,0 km/h (0 Bft)
09.02.2016 06:50 2,3 C 1,9 C 87 % 1007,0 hPa 0,0 mm 1,3 km/h (1 Bft) W-SW 247 0,4 C 0,0 km/h (0 Bft)
09.02.2016 06:55 2,3 C 1,9 C 87 % 1007,0 hPa 0,0 mm 1,0 km/h (0 Bft) N-NO 22 0,4 C 0,0 km/h (0 Bft)
09.02.2016 07:00 2,0 C 1,6 C 87 % 1007,0 hPa 0,0 mm 0,0 km/h (0 Bft) W-SW 247 0,1 C 0,0 km/h (0 Bft)
09.02.2016 07:05 1,9 C 1,5 C 87 % 1006,7 hPa 0,0 mm 0,0 km/h (0 Bft) NW 315 -0,0 C 0,0 km/h (0 Bft)
09.02.2016 07:10 1,7 C 1,3 C 86 % 1006,7 hPa 0,0 mm 0,0 km/h (0 Bft) W 270 -0,4 C 0,0 km/h (0 Bft)
09.02.2016 07:15 1,8 C 1,3 C 86 % 1006,7 hPa 0,0 mm 0,0 km/h (0 Bft) O-SO 112 -0,3 C 0,0 km/h (0 Bft)
09.02.2016 07:20 1,3 C 0,9 C 86 % 1006,7 hPa 0,0 mm 0,0 km/h (0 Bft) O-SO 112 -0,8 C 0,0 km/h (0 Bft)
09.02.2016 07:25 1,4 C 0,9 C 86 % 1006,4 hPa 0,0 mm 0,0 km/h (0 Bft) O-SO 112 -0,7 C 0,0 km/h (0 Bft)
09.02.2016 07:30 1,1 C 0,6 C 86 % 1006,4 hPa 0,0 mm 0,0 km/h (0 Bft) O 90 -1,0 C 0,0 km/h (0 Bft)
09.02.2016 07:35 0,7 C 0,3 C 86 % 1006,4 hPa 0,0 mm 0,0 km/h (0 Bft) O 90 -1,4 C 0,0 km/h (0 Bft)
09.02.2016 07:40 0,6 C 0,2 C 86 % 1006,4 hPa 0,0 mm 0,0 km/h (0 Bft) O 90 -1,5 C 0,0 km/h (0 Bft)
09.02.2016 07:45 0,7 C 0,2 C 86 % 1006,4 hPa 0,0 mm 0,0 km/h (0 Bft) W-NW 292 -1,4 C 0,0 km/h (0 Bft)
09.02.2016 07:50 0,7 C 0,3 C 86 % 1006,4 hPa 0,0 mm 0,0 km/h (0 Bft) O-NO 67 -1,4 C 0,0 km/h (0 Bft)
09.02.2016 07:55 0,7 C 0,4 C 86 % 1006,4 hPa 0,0 mm 0,0 km/h (0 Bft) N-NO 22 -1,4 C 0,0 km/h (0 Bft)
09.02.2016 08:00 0,6 C 0,3 C 86 % 1006,4 hPa 0,0 mm 0,0 km/h (0 Bft) NO 45 -1,5 C 0,0 km/h (0 Bft)
09.02.2016 08:05 0,4 C 0,2 C 86 % 1006,1 hPa 0,0 mm 0,0 km/h (0 Bft) O-NO 67 -1,7 C 0,0 km/h (0 Bft)
09.02.2016 08:10 1,0 C 0,8 C 82 % 1006,1 hPa 0,0 mm 0,5 km/h (0 Bft) O-NO 67 -1,7 C 0,0 km/h (0 Bft)
09.02.2016 08:15 1,1 C 0,8 C 87 % 1006,1 hPa 0,0 mm 0,5 km/h (0 Bft) O-NO 67 -0,8 C 0,0 km/h (0 Bft)
09.02.2016 08:20 1,4 C 1,3 C 82 % 1006,1 hPa 0,0 mm 0,0 km/h (0 Bft) O-SO 112 -1,3 C 0,0 km/h (0 Bft)
09.02.2016 08:25 1,6 C 1,4 C 88 % 1005,8 hPa 0,0 mm 0,0 km/h (0 Bft) N 360 -0,2 C 0,0 km/h (0 Bft)
09.02.2016 08:30 1,6 C 1,4 C 88 % 1005,8 hPa 0,0 mm 0,0 km/h (0 Bft) N-NO 22 -0,2 C 0,0 km/h (0 Bft)
09.02.2016 08:35 1,6 C 1,4 C 88 % 1005,8 hPa 0,0 mm 0,0 km/h (0 Bft) W-NW 292 -0,2 C 0,0 km/h (0 Bft)
09.02.2016 08:40 1,5 C 1,4 C 88 % 1005,8 hPa 0,0 mm 0,3 km/h (0 Bft) W 270 -0,3 C 0,0 km/h (0 Bft)
09.02.2016 08:45 1,6 C 1,5 C 88 % 1005,1 hPa 0,0 mm 0,8 km/h (0 Bft) W 270 -0,2 C 3,9 km/h (1 Bft)
09.02.2016 08:50 1,7 C 1,6 C 88 % 1005,1 hPa 0,0 mm 0,8 km/h (0 Bft) SW 225 -0,1 C 0,0 km/h (0 Bft)
09.02.2016 08:55 1,8 C 1,8 C 82 % 1005,1 hPa 0,0 mm 0,5 km/h (0 Bft) NW 315 -0,9 C 0,0 km/h (0 Bft)
09.02.2016 09:00 1,9 C 2,0 C 82 % 1005,1 hPa 0,0 mm 0,0 km/h (0 Bft) N-NW 337 -0,8 C 0,0 km/h (0 Bft)
09.02.2016 09:05 1,9 C 2,1 C 82 % 1004,8 hPa 0,0 mm 0,0 km/h (0 Bft) N-NW 337 -0,8 C 0,0 km/h (0 Bft)
09.02.2016 09:10 2,0 C 2,4 C 82 % 1004,8 hPa 0,0 mm 0,0 km/h (0 Bft) S 180 -0,7 C 0,0 km/h (0 Bft)
09.02.2016 09:15 2,3 C 2,6 C 82 % 1004,8 hPa 0,0 mm 0,0 km/h (0 Bft) S 180 -0,4 C 0,0 km/h (0 Bft)
09.02.2016 09:20 2,4 C 3,0 C 82 % 1004,8 hPa 0,0 mm 0,0 km/h (0 Bft) N-NW 337 -0,4 C 0,0 km/h (0 Bft)
09.02.2016 09:25 2,5 C 3,2 C 82 % 1004,7 hPa 0,0 mm 0,0 km/h (0 Bft) W-SW 247 -0,3 C 0,0 km/h (0 Bft)
09.02.2016 09:30 2,7 C 3,7 C 82 % 1004,7 hPa 0,0 mm 0,0 km/h (0 Bft) O-SO 112 -0,1 C 0,0 km/h (0 Bft)
09.02.2016 09:35 2,9 C 3,9 C 82 % 1004,7 hPa 0,0 mm 0,0 km/h (0 Bft) N-NO 22 0,1 C 0,0 km/h (0 Bft)
09.02.2016 09:40 3,1 C 4,3 C 81 % 1004,7 hPa 0,0 mm 0,0 km/h (0 Bft) W-NW 292 0,2 C 0,0 km/h (0 Bft)
09.02.2016 09:45 3,3 C 4,7 C 81 % 1004,6 hPa 0,0 mm 0,0 km/h (0 Bft) NW 315 0,4 C 0,0 km/h (0 Bft)
09.02.2016 09:50 3,5 C 5,3 C 81 % 1004,6 hPa 0,0 mm 0,0 km/h (0 Bft) O-SO 112 0,6 C 0,0 km/h (0 Bft)
09.02.2016 09:55 3,7 C 5,4 C 81 % 1004,6 hPa 0,0 mm 0,3 km/h (0 Bft) O 90 0,7 C 3,9 km/h (1 Bft)
09.02.2016 10:00 3,9 C 5,4 C 81 % 1004,6 hPa 0,0 mm 1,6 km/h (1 Bft) O-SO 112 0,9 C 3,9 km/h (1 Bft)
09.02.2016 10:05 4,0 C 5,5 C 81 % 1004,2 hPa 0,0 mm 2,6 km/h (1 Bft) O-SO 112 1,0 C 6,7 km/h (2 Bft)
09.02.2016 10:10 4,2 C 5,8 C 80 % 1004,2 hPa 0,0 mm 1,6 km/h (1 Bft) NO 45 1,1 C 0,0 km/h (0 Bft)
09.02.2016 10:15 4,5 C 6,1 C 80 % 1004,2 hPa 0,0 mm 1,0 km/h (0 Bft) NO 45 1,4 C 5,4 km/h (1 Bft)
09.02.2016 10:20 4,8 C 6,5 C 80 % 1004,2 hPa 0,0 mm 2,1 km/h (1 Bft) NW 315 1,6 C 0,0 km/h (0 Bft)
09.02.2016 10:25 5,1 C 7,0 C 80 % 1003,7 hPa 0,0 mm 1,8 km/h (1 Bft) O-NO 67 1,9 C 2,6 km/h (1 Bft)
09.02.2016 10:30 5,5 C 7,3 C 79 % 1003,7 hPa 0,0 mm 2,6 km/h (1 Bft) N-NO 22 2,2 C 0,0 km/h (0 Bft)
09.02.2016 10:35 5,6 C 7,7 C 79 % 1003,7 hPa 0,0 mm 2,8 km/h (1 Bft) O-NO 67 2,3 C 8,5 km/h (2 Bft)
09.02.2016 10:40 5,8 C 8,1 C 78 % 1003,7 hPa 0,0 mm 3,1 km/h (1 Bft) SO 135 2,3 C 0,0 km/h (0 Bft)
09.02.2016 10:45 6,2 C 8,5 C 77 % 1003,4 hPa 0,0 mm 3,9 km/h (1 Bft) N-NO 22 2,5 C 4,7 km/h (1 Bft)
09.02.2016 10:50 6,6 C 8,9 C 76 % 1003,4 hPa 0,0 mm 3,9 km/h (1 Bft) N-NO 22 2,7 C 8,3 km/h (2 Bft)
09.02.2016 10:55 6,8 C 9,1 C 74 % 1003,4 hPa 0,0 mm 4,9 km/h (1 Bft) NO 45 2,5 C 0,0 km/h (0 Bft)
09.02.2016 11:00 7,1 C 9,3 C 72 % 1003,4 hPa 0,0 mm 5,7 km/h (1 Bft) N-NW 337 2,4 C 9,6 km/h (2 Bft)
09.02.2016 11:04 7,2 C 9,3 C 72 % 1003,4 hPa 0,0 mm 5,7 km/h (1 Bft) N-NO 22 2,5 C 8,3 km/h (2 Bft)
09.02.2016 11:05 7,2 C 9,3 C 72 % 1003,4 hPa 0,0 mm 5,7 km/h (1 Bft) N-NO 22 2,5 C 8,3 km/h (2 Bft)
09.02.2016 11:10 7,3 C 9,6 C 70 % 1003,4 hPa 0,0 mm 5,7 km/h (1 Bft) NO 45 2,2 C 8,3 km/h (2 Bft)
09.02.2016 11:15 7,4 C 9,8 C 70 % 1003,4 hPa 0,0 mm 5,7 km/h (1 Bft) NW 315 2,3 C 8,8 km/h (2 Bft)
09.02.2016 11:20 7,7 C 10,1 C 70 % 1003,4 hPa 0,0 mm 4,7 km/h (1 Bft) NO 45 2,6 C 3,4 km/h (1 Bft)
09.02.2016 11:25 7,8 C 10,3 C 69 % 1003,3 hPa 0,0 mm 2,6 km/h (1 Bft) NO 45 2,5 C 0,0 km/h (0 Bft)
09.02.2016 11:30 8,0 C 10,8 C 68 % 1003,3 hPa 0,0 mm 3,6 km/h (1 Bft) N-NW 337 2,5 C 10,9 km/h (2 Bft)
09.02.2016 11:35 8,1 C 10,6 C 69 % 1003,3 hPa 0,0 mm 5,4 km/h (1 Bft) W 270 2,8 C 9,3 km/h (2 Bft)
09.02.2016 11:40 8,2 C 10,7 C 68 % 1003,3 hPa 0,0 mm 5,7 km/h (1 Bft) N-NW 337 2,7 C 4,1 km/h (1 Bft)
09.02.2016 11:45 8,2 C 11,2 C 68 % 1002,6 hPa 0,0 mm 4,1 km/h (1 Bft) N-NW 337 2,7 C 9,6 km/h (2 Bft)
09.02.2016 11:50 8,1 C 12,4 C 66 % 1002,6 hPa 0,0 mm 3,6 km/h (1 Bft) NW 315 2,1 C 8,8 km/h (2 Bft)
09.02.2016 11:55 8,1 C 12,8 C 65 % 1002,6 hPa 0,0 mm 3,9 km/h (1 Bft) N-NO 22 1,9 C 2,8 km/h (1 Bft)
09.02.2016 12:00 8,5 C 13,5 C 65 % 1002,6 hPa 0,0 mm 2,3 km/h (1 Bft) S 180 2,3 C 0,0 km/h (0 Bft)
09.02.2016 12:05 8,6 C 13,8 C 65 % 1001,5 hPa 0,0 mm 1,3 km/h (1 Bft) O-SO 112 2,4 C 0,0 km/h (0 Bft)
09.02.2016 12:10 8,6 C 13,8 C 63 % 1001,5 hPa 0,0 mm 0,8 km/h (0 Bft) NO 45 2,0 C 0,0 km/h (0 Bft)
09.02.2016 12:15 8,7 C 13,7 C 63 % 1001,5 hPa 0,0 mm 1,8 km/h (1 Bft) N-NO 22 2,1 C 3,4 km/h (1 Bft)
09.02.2016 12:20 8,9 C 13,5 C 62 % 1001,5 hPa 0,0 mm 3,1 km/h (1 Bft) N-NO 22 2,0 C 5,2 km/h (1 Bft)
09.02.2016 12:25 9,0 C 13,6 C 62 % 1000,7 hPa 0,0 mm 2,8 km/h (1 Bft) N-NW 337 2,1 C 3,4 km/h (1 Bft)
09.02.2016 12:30 9,3 C 13,2 C 62 % 1000,7 hPa 0,0 mm 4,4 km/h (1 Bft) O 90 2,4 C 9,8 km/h (2 Bft)
09.02.2016 12:35 9,3 C 12,8 C 61 % 1000,7 hPa 0,0 mm 6,0 km/h (2 Bft) O-NO 67 2,2 C 9,3 km/h (2 Bft)
09.02.2016 12:40 9,4 C 12,1 C 61 % 1000,7 hPa 0,0 mm 8,3 km/h (2 Bft) O-NO 67 2,3 C 10,4 km/h (2 Bft)
09.02.2016 12:45 9,4 C 11,7 C 62 % 1000,1 hPa 0,0 mm 8,5 km/h (2 Bft) O-NO 67 2,5 C 7,3 km/h (2 Bft)
09.02.2016 12:50 9,4 C 11,6 C 62 % 1000,1 hPa 0,0 mm 7,0 km/h (2 Bft) O-NO 67 2,5 C 4,9 km/h (1 Bft)
09.02.2016 12:55 9,4 C 11,5 C 63 % 1000,1 hPa 0,0 mm 7,0 km/h (2 Bft) O-NO 67 2,7 C 17,6 km/h (3 Bft)
09.02.2016 13:00 9,5 C 11,2 C 63 % 1000,1 hPa 0,0 mm 8,8 km/h (2 Bft) NO 45 2,8 C 10,4 km/h (2 Bft)
09.02.2016 13:05 9,5 C 11,3 C 63 % 998,9 hPa 0,0 mm 9,1 km/h (2 Bft) NO 45 2,8 C 9,3 km/h (2 Bft)
09.02.2016 13:10 9,7 C 11,7 C 63 % 998,9 hPa 0,0 mm 6,7 km/h (2 Bft) O-NO 67 3,0 C 9,3 km/h (2 Bft)
09.02.2016 13:15 9,8 C 11,9 C 63 % 998,9 hPa 0,0 mm 5,4 km/h (1 Bft) N-NW 337 3,1 C 7,3 km/h (2 Bft)
09.02.2016 13:20 9,9 C 11,9 C 63 % 998,9 hPa 0,0 mm 5,7 km/h (1 Bft) O-NO 67 3,2 C 17,3 km/h (3 Bft)
09.02.2016 13:25 10,0 C 11,9 C 61 % 998,2 hPa 0,0 mm 6,5 km/h (2 Bft) S-SW 202 2,8 C 0,0 km/h (0 Bft)
09.02.2016 13:30 10,5 C 12,7 C 61 % 998,2 hPa 0,0 mm 7,0 km/h (2 Bft) W-SW 247 3,3 C 6,2 km/h (2 Bft)
09.02.2016 13:35 10,7 C 12,9 C 61 % 998,2 hPa 0,0 mm 4,7 km/h (1 Bft) W 270 3,5 C 0,0 km/h (0 Bft)
09.02.2016 13:40 10,7 C 12,7 C 61 % 998,2 hPa 0,0 mm 3,9 km/h (1 Bft) W 270 3,5 C 8,3 km/h (2 Bft)
09.02.2016 13:45 10,6 C 12,3 C 61 % 997,8 hPa 0,0 mm 4,4 km/h (1 Bft) W 270 3,4 C 7,0 km/h (2 Bft)
09.02.2016 13:50 10,5 C 12,1 C 61 % 997,8 hPa 0,0 mm 3,6 km/h (1 Bft) NW 315 3,3 C 0,0 km/h (0 Bft)
09.02.2016 13:55 10,6 C 12,1 C 61 % 997,8 hPa 0,0 mm 3,1 km/h (1 Bft) N 360 3,4 C 15,5 km/h (3 Bft)
09.02.2016 14:00 10,7 C 12,1 C 60 % 997,8 hPa 0,0 mm 3,1 km/h (1 Bft) S 180 3,3 C 9,1 km/h (2 Bft)
09.02.2016 14:05 10,7 C 12,0 C 59 % 996,9 hPa 0,0 mm 5,4 km/h (1 Bft) W-NW 292 3,0 C 9,8 km/h (2 Bft)
09.02.2016 14:10 10,8 C 12,0 C 59 % 996,9 hPa 0,0 mm 4,4 km/h (1 Bft) SO 135 3,1 C 0,0 km/h (0 Bft)
09.02.2016 14:15 10,9 C 12,1 C 60 % 996,9 hPa 0,0 mm 2,8 km/h (1 Bft) W-SW 247 3,4 C 5,2 km/h (1 Bft)
09.02.2016 14:20 11,1 C 12,4 C 59 % 996,9 hPa 0,0 mm 2,3 km/h (1 Bft) S-SO 157 3,4 C 3,9 km/h (1 Bft)
09.02.2016 14:25 11,6 C 12,7 C 57 % 996,4 hPa 0,0 mm 2,8 km/h (1 Bft) NW 315 3,4 C 4,4 km/h (1 Bft)
09.02.2016 14:30 12,0 C 12,9 C 54 % 996,4 hPa 0,0 mm 5,4 km/h (1 Bft) W-SW 247 3,0 C 9,3 km/h (2 Bft)
09.02.2016 14:35 12,3 C 13,1 C 51 % 996,4 hPa 0,0 mm 5,7 km/h (1 Bft) W-SW 247 2,5 C 3,9 km/h (1 Bft)
09.02.2016 14:40 12,3 C 13,2 C 48 % 996,4 hPa 0,0 mm 5,7 km/h (1 Bft) SW 225 1,6 C 10,6 km/h (2 Bft)
09.02.2016 14:45 12,5 C 13,3 C 48 % 996,2 hPa 0,0 mm 5,4 km/h (1 Bft) SW 225 1,8 C 8,5 km/h (2 Bft)
09.02.2016 14:50 12,6 C 13,3 C 46 % 996,2 hPa 0,0 mm 8,5 km/h (2 Bft) SW 225 1,3 C 13,2 km/h (3 Bft)
09.02.2016 14:55 12,6 C 13,4 C 46 % 996,2 hPa 0,0 mm 7,8 km/h (2 Bft) SW 225 1,3 C 9,6 km/h (2 Bft)
09.02.2016 15:00 12,8 C 13,4 C 42 % 996,2 hPa 0,0 mm 10,1 km/h (2 Bft) W-SW 247 0,2 C 15,3 km/h (3 Bft)
09.02.2016 15:05 12,7 C 13,3 C 43 % 995,8 hPa 0,0 mm 12,7 km/h (3 Bft) W-SW 247 0,5 C 16,1 km/h (3 Bft)
09.02.2016 15:10 12,7 C 13,1 C 43 % 995,8 hPa 0,0 mm 11,1 km/h (2 Bft) W-SW 247 0,5 C 9,6 km/h (2 Bft)
09.02.2016 15:15 12,7 C 13,2 C 42 % 995,8 hPa 0,0 mm 9,6 km/h (2 Bft) W-SW 247 0,1 C 6,2 km/h (2 Bft)
09.02.2016 15:20 12,6 C 13,2 C 42 % 995,8 hPa 0,0 mm 7,5 km/h (2 Bft) SW 225 0,0 C 11,1 km/h (2 Bft)
09.02.2016 15:25 12,8 C 13,1 C 40 % 995,4 hPa 0,0 mm 10,4 km/h (2 Bft) W-SW 247 -0,5 C 18,1 km/h (3 Bft)
09.02.2016 15:30 12,8 C 13,0 C 39 % 995,4 hPa 0,0 mm 12,4 km/h (3 Bft) SW 225 -0,8 C 10,6 km/h (2 Bft)
09.02.2016 15:35 12,5 C 13,2 C 42 % 995,4 hPa 0,0 mm 8,0 km/h (2 Bft) O-NO 67 -0,1 C 3,9 km/h (1 Bft)
09.02.2016 15:40 12,5 C 13,1 C 42 % 995,4 hPa 0,0 mm 6,2 km/h (2 Bft) W 270 -0,1 C 5,2 km/h (1 Bft)
09.02.2016 15:45 12,6 C 13,1 C 41 % 995,1 hPa 0,0 mm 7,5 km/h (2 Bft) W-SW 247 -0,3 C 10,1 km/h (2 Bft)
09.02.2016 15:50 12,2 C 12,9 C 42 % 995,1 hPa 0,0 mm 4,9 km/h (1 Bft) SO 135 -0,3 C 3,9 km/h (1 Bft)
09.02.2016 15:55 12,2 C 12,9 C 42 % 995,1 hPa 0,0 mm 3,6 km/h (1 Bft) SW 225 -0,3 C 7,3 km/h (2 Bft)
09.02.2016 16:00 11,9 C 12,8 C 42 % 995,1 hPa 0,0 mm 4,1 km/h (1 Bft) SO 135 -0,6 C 0,0 km/h (0 Bft)
09.02.2016 16:05 11,9 C 12,7 C 42 % 994,9 hPa 0,0 mm 3,9 km/h (1 Bft) O-NO 67 -0,6 C 0,0 km/h (0 Bft)
09.02.2016 16:10 12,0 C 12,5 C 42 % 994,9 hPa 0,0 mm 4,9 km/h (1 Bft) W 270 -0,5 C 11,1 km/h (2 Bft)
09.02.2016 16:15 12,2 C 12,5 C 41 % 994,9 hPa 0,0 mm 6,5 km/h (2 Bft) NO 45 -0,7 C 3,1 km/h (1 Bft)
09.02.2016 16:20 11,8 C 12,4 C 41 % 994,9 hPa 0,0 mm 5,7 km/h (1 Bft) NW 315 -1,0 C 8,0 km/h (2 Bft)
09.02.2016 16:25 11,9 C 12,4 C 41 % 994,6 hPa 0,0 mm 4,7 km/h (1 Bft) O-SO 112 -0,9 C 2,8 km/h (1 Bft)
09.02.2016 16:30 11,3 C 12,0 C 43 % 994,6 hPa 0,0 mm 3,1 km/h (1 Bft) O-SO 112 -0,8 C 2,6 km/h (1 Bft)
09.02.2016 16:35 11,4 C 11,9 C 42 % 994,6 hPa 0,0 mm 2,1 km/h (1 Bft) N-NO 22 -1,0 C 3,6 km/h (1 Bft)
09.02.2016 16:40 11,0 C 11,6 C 43 % 994,6 hPa 0,0 mm 2,6 km/h (1 Bft) O-SO 112 -1,1 C 2,6 km/h (1 Bft)
09.02.2016 16:45 11,3 C 11,5 C 42 % 994,2 hPa 0,0 mm 2,3 km/h (1 Bft) W-SW 247 -1,1 C 14,8 km/h (3 Bft)
09.02.2016 16:50 11,7 C 11,7 C 41 % 994,2 hPa 0,0 mm 6,5 km/h (2 Bft) O-SO 112 -1,1 C 0,0 km/h (0 Bft)
09.02.2016 16:55 11,3 C 11,6 C 42 % 994,2 hPa 0,0 mm 5,7 km/h (1 Bft) O-NO 67 -1,1 C 6,0 km/h (2 Bft)
09.02.2016 17:00 10,7 C 11,3 C 42 % 994,2 hPa 0,0 mm 1,3 km/h (1 Bft) O-SO 112 -1,7 C 0,0 km/h (0 Bft)
09.02.2016 17:04 10,9 C 11,1 C 42 % 993,8 hPa 0,0 mm 3,1 km/h (1 Bft) SO 135 -1,5 C 6,0 km/h (2 Bft)
09.02.2016 17:05 10,9 C 11,1 C 42 % 993,8 hPa 0,0 mm 3,1 km/h (1 Bft) SO 135 -1,5 C 6,0 km/h (2 Bft)
09.02.2016 17:10 10,8 C 11,1 C 42 % 993,8 hPa 0,0 mm 4,4 km/h (1 Bft) O-NO 67 -1,6 C 0,0 km/h (0 Bft)
09.02.2016 17:15 10,5 C 10,8 C 42 % 993,8 hPa 0,0 mm 3,1 km/h (1 Bft) O 90 -1,9 C 4,4 km/h (1 Bft)
09.02.2016 17:20 10,4 C 10,6 C 43 % 993,8 hPa 0,0 mm 3,4 km/h (1 Bft) SW 225 -1,6 C 12,4 km/h (3 Bft)
09.02.2016 17:25 11,5 C 11,3 C 40 % 993,7 hPa 0,0 mm 8,5 km/h (2 Bft) SW 225 -1,6 C 25,4 km/h (4 Bft)
09.02.2016 17:30 11,7 C 11,5 C 38 % 993,7 hPa 0,0 mm 11,7 km/h (2 Bft) W 270 -2,1 C 5,7 km/h (1 Bft)
09.02.2016 17:35 11,4 C 11,4 C 38 % 993,7 hPa 0,0 mm 8,8 km/h (2 Bft) SW 225 -2,4 C 4,7 km/h (1 Bft)
09.02.2016 17:40 11,6 C 11,7 C 38 % 993,7 hPa 0,0 mm 6,5 km/h (2 Bft) S 180 -2,2 C 9,6 km/h (2 Bft)
09.02.2016 17:45 11,6 C 11,7 C 38 % 993,9 hPa 0,0 mm 7,8 km/h (2 Bft) W 270 -2,2 C 3,4 km/h (1 Bft)
09.02.2016 17:50 11,6 C 11,6 C 37 % 993,9 hPa 0,0 mm 9,1 km/h (2 Bft) N-NW 337 -2,6 C 12,9 km/h (3 Bft)
09.02.2016 17:55 11,6 C 11,6 C 37 % 993,9 hPa 0,0 mm 9,1 km/h (2 Bft) W 270 -2,6 C 6,2 km/h (2 Bft)
09.02.2016 18:00 11,3 C 11,7 C 37 % 993,9 hPa 0,0 mm 7,5 km/h (2 Bft) NW 315 -2,8 C 10,4 km/h (2 Bft)
09.02.2016 18:05 11,4 C 11,7 C 37 % 993,8 hPa 0,0 mm 6,0 km/h (2 Bft) NW 315 -2,8 C 14,2 km/h (3 Bft)
09.02.2016 18:10 11,6 C 11,7 C 37 % 993,8 hPa 0,0 mm 8,3 km/h (2 Bft) W-SW 247 -2,6 C 9,8 km/h (2 Bft)
09.02.2016 18:15 11,8 C 11,7 C 36 % 993,8 hPa 0,0 mm 10,6 km/h (2 Bft) W-SW 247 -2,8 C 6,5 km/h (2 Bft)
09.02.2016 18:20 11,8 C 11,7 C 36 % 993,8 hPa 0,0 mm 11,4 km/h (2 Bft) W-NW 292 -2,8 C 15,0 km/h (3 Bft)
09.02.2016 18:25 11,8 C 11,8 C 37 % 994,2 hPa 0,0 mm 9,8 km/h (2 Bft) W-SW 247 -2,4 C 8,5 km/h (2 Bft)
09.02.2016 18:30 11,5 C 11,4 C 37 % 994,2 hPa 0,0 mm 11,9 km/h (2 Bft) W-NW 292 -2,7 C 22,0 km/h (4 Bft)
09.02.2016 18:35 11,1 C 11,2 C 38 % 994,2 hPa 0,0 mm 13,2 km/h (3 Bft) W 270 -2,7 C 12,9 km/h (3 Bft)
09.02.2016 18:40 10,5 C 10,7 C 41 % 994,2 hPa 0,0 mm 12,7 km/h (3 Bft) W 270 -2,2 C 14,8 km/h (3 Bft)
09.02.2016 18:45 10,2 C 10,1 C 42 % 994,7 hPa 0,0 mm 10,6 km/h (2 Bft) W 270 -2,1 C 17,6 km/h (3 Bft)
09.02.2016 18:50 10,0 C 9,9 C 44 % 994,7 hPa 0,0 mm 9,8 km/h (2 Bft) W 270 -1,7 C 13,5 km/h (3 Bft)
09.02.2016 18:55 9,8 C 9,6 C 45 % 994,7 hPa 0,0 mm 10,6 km/h (2 Bft) W 270 -1,6 C 10,9 km/h (2 Bft)
09.02.2016 19:00 9,6 C 9,3 C 46 % 994,7 hPa 0,0 mm 11,4 km/h (2 Bft) W 270 -1,4 C 11,9 km/h (2 Bft)
09.02.2016 19:05 9,5 C 9,2 C 47 % 993,8 hPa 0,0 mm 11,1 km/h (2 Bft) NW 315 -1,2 C 8,0 km/h (2 Bft)
09.02.2016 19:10 9,2 C 9,1 C 48 % 993,8 hPa 0,0 mm 8,5 km/h (2 Bft) W-SW 247 -1,2 C 9,3 km/h (2 Bft)
09.02.2016 19:15 9,0 C 9,1 C 48 % 993,8 hPa 0,0 mm 6,2 km/h (2 Bft) SW 225 -1,4 C 6,7 km/h (2 Bft)
09.02.2016 19:20 9,0 C 8,9 C 49 % 993,8 hPa 0,0 mm 3,9 km/h (1 Bft) O-SO 112 -1,1 C 4,9 km/h (1 Bft)
09.02.2016 19:25 8,5 C 8,7 C 51 % 993,0 hPa 0,0 mm 4,1 km/h (1 Bft) NO 45 -1,0 C 0,0 km/h (0 Bft)
09.02.2016 19:30 8,5 C 8,5 C 50 % 993,0 hPa 0,0 mm 2,8 km/h (1 Bft) O-NO 67 -1,3 C 2,6 km/h (1 Bft)
09.02.2016 19:35 8,4 C 8,4 C 50 % 993,0 hPa 0,0 mm 1,0 km/h (0 Bft) O 90 -1,4 C 0,0 km/h (0 Bft)
09.02.2016 19:40 8,7 C 8,5 C 50 % 993,0 hPa 0,0 mm 0,0 km/h (0 Bft) O-NO 67 -1,1 C 0,0 km/h (0 Bft)
09.02.2016 19:45 8,7 C 8,5 C 50 % 993,1 hPa 0,0 mm 0,0 km/h (0 Bft) O-NO 67 -1,1 C 0,0 km/h (0 Bft)
09.02.2016 19:50 8,4 C 8,3 C 51 % 993,1 hPa 0,0 mm 0,8 km/h (0 Bft) SW 225 -1,1 C 10,4 km/h (2 Bft)
09.02.2016 19:55 8,7 C 8,6 C 52 % 993,1 hPa 0,0 mm 3,1 km/h (1 Bft) O-SO 112 -0,6 C 4,7 km/h (1 Bft)
09.02.2016 20:00 8,4 C 8,6 C 52 % 993,1 hPa 0,0 mm 4,4 km/h (1 Bft) SO 135 -0,9 C 0,0 km/h (0 Bft)
09.02.2016 20:05 8,2 C 8,5 C 52 % 993,1 hPa 0,0 mm 2,8 km/h (1 Bft) NW 315 -1,1 C 8,8 km/h (2 Bft)
09.02.2016 20:10 7,9 C 8,3 C 53 % 993,1 hPa 0,0 mm 2,6 km/h (1 Bft) SW 225 -1,1 C 5,2 km/h (1 Bft)
09.02.2016 20:15 8,3 C 8,3 C 53 % 993,1 hPa 0,0 mm 3,6 km/h (1 Bft) W-SW 247 -0,7 C 6,7 km/h (2 Bft)
09.02.2016 20:20 8,5 C 8,5 C 52 % 993,1 hPa 0,0 mm 4,9 km/h (1 Bft) W 270 -0,8 C 7,0 km/h (2 Bft)
09.02.2016 20:25 8,8 C 8,7 C 51 % 993,5 hPa 0,0 mm 5,2 km/h (1 Bft) W 270 -0,8 C 7,5 km/h (2 Bft)
09.02.2016 20:30 8,9 C 8,9 C 50 % 993,5 hPa 0,0 mm 3,9 km/h (1 Bft) W-SW 247 -0,9 C 5,4 km/h (1 Bft)
09.02.2016 20:35 9,3 C 9,2 C 50 % 993,5 hPa 0,0 mm 5,4 km/h (1 Bft) W 270 -0,6 C 16,6 km/h (3 Bft)
09.02.2016 20:40 9,9 C 9,7 C 49 % 993,5 hPa 0,0 mm 12,7 km/h (3 Bft) W-SW 247 -0,3 C 16,3 km/h (3 Bft)
09.02.2016 20:45 9,7 C 9,5 C 49 % 993,3 hPa 0,0 mm 15,5 km/h (3 Bft) SO 135 -0,5 C 7,5 km/h (2 Bft)
09.02.2016 20:50 9,7 C 9,4 C 50 % 993,3 hPa 0,0 mm 16,6 km/h (3 Bft) NW 315 -0,2 C 15,5 km/h (3 Bft)
09.02.2016 20:55 9,6 C 9,3 C 50 % 993,3 hPa 0,0 mm 17,9 km/h (3 Bft) SW 225 -0,3 C 42,2 km/h (6 Bft)
09.02.2016 21:00 9,3 C 8,9 C 53 % 993,3 hPa 0,0 mm 21,2 km/h (4 Bft) SW 225 0,2 C 37,5 km/h (5 Bft)
09.02.2016 21:05 8,7 C 8,2 C 56 % 994,4 hPa 0,0 mm 21,0 km/h (4 Bft) W-SW 247 0,4 C 42,7 km/h (6 Bft)
09.02.2016 21:10 8,2 C 7,5 C 59 % 994,4 hPa 0,0 mm 17,3 km/h (3 Bft) NW 315 0,7 C 30,3 km/h (5 Bft)
09.02.2016 21:15 5,0 C 4,8 C 66 % 994,4 hPa 0,0 mm 25,4 km/h (4 Bft) W 270 -0,8 C 53,6 km/h (7 Bft)
09.02.2016 21:20 4,0 C 3,2 C 73 % 994,4 hPa 0,0 mm 30,0 km/h (5 Bft) N-NW 337 -0,4 C 27,2 km/h (4 Bft)
09.02.2016 21:25 3,4 C 2,3 C 76 % 996,2 hPa 0,7 mm 23,3 km/h (4 Bft) NW 315 -0,4 C 69,9 km/h (8 Bft)
09.02.2016 21:30 2,8 C 1,7 C 78 % 996,2 hPa 0,0 mm 23,0 km/h (4 Bft) NW 315 -0,6 C 32,1 km/h (5 Bft)
09.02.2016 21:35 2,6 C 1,4 C 79 % 996,2 hPa 0,7 mm 24,1 km/h (4 Bft) W 270 -0,7 C 51,3 km/h (7 Bft)
09.02.2016 21:40 2,3 C 1,1 C 81 % 996,2 hPa 0,0 mm 23,3 km/h (4 Bft) W 270 -0,6 C 13,2 km/h (3 Bft)
09.02.2016 21:45 2,1 C 0,9 C 82 % 996,0 hPa 0,0 mm 22,3 km/h (4 Bft) W 270 -0,6 C 28,5 km/h (4 Bft)
09.02.2016 21:50 1,9 C 0,7 C 84 % 996,0 hPa 0,7 mm 19,4 km/h (3 Bft) W-SW 247 -0,5 C 26,9 km/h (4 Bft)
09.02.2016 21:55 1,8 C 0,7 C 84 % 996,0 hPa 0,0 mm 20,2 km/h (4 Bft) W-NW 292 -0,6 C 30,0 km/h (5 Bft)
09.02.2016 22:00 1,7 C 0,1 C 85 % 996,0 hPa 0,0 mm 18,9 km/h (3 Bft) W-NW 292 -0,5 C 11,7 km/h (2 Bft)
09.02.2016 22:05 1,7 C 0,5 C 85 % 995,6 hPa 0,0 mm 19,9 km/h (4 Bft) SW 225 -0,5 C 28,0 km/h (4 Bft)
09.02.2016 22:10 1,7 C 0,5 C 86 % 995,6 hPa 0,0 mm 17,9 km/h (3 Bft) W 270 -0,4 C 30,0 km/h (5 Bft)
09.02.2016 22:15 1,7 C 0,6 C 86 % 995,6 hPa 0,0 mm 17,1 km/h (3 Bft) SW 225 -0,4 C 16,1 km/h (3 Bft)
09.02.2016 22:20 1,8 C 0,7 C 86 % 995,6 hPa 0,0 mm 19,7 km/h (3 Bft) W-SW 247 -0,3 C 36,5 km/h (5 Bft)
09.02.2016 22:25 1,8 C 0,6 C 86 % 995,8 hPa 0,0 mm 20,2 km/h (4 Bft) W-NW 292 -0,3 C 37,5 km/h (5 Bft)
09.02.2016 22:30 1,7 C 0,5 C 86 % 995,8 hPa 0,0 mm 22,3 km/h (4 Bft) W 270 -0,4 C 28,2 km/h (4 Bft)
09.02.2016 22:35 1,7 C 0,0 C 86 % 995,8 hPa 0,0 mm 22,3 km/h (4 Bft) SW 225 -0,4 C 23,3 km/h (4 Bft)
09.02.2016 22:40 1,6 C 0,4 C 86 % 995,8 hPa 0,0 mm 21,0 km/h (4 Bft) W-SW 247 -0,5 C 15,8 km/h (3 Bft)
09.02.2016 22:45 1,6 C 0,4 C 86 % 995,4 hPa 0,0 mm 20,2 km/h (4 Bft) W 270 -0,5 C 21,5 km/h (4 Bft)
09.02.2016 22:50 1,5 C 0,4 C 86 % 995,4 hPa 0,0 mm 16,8 km/h (3 Bft) W 270 -0,6 C 15,5 km/h (3 Bft)
09.02.2016 22:55 1,6 C 0,5 C 86 % 995,4 hPa 0,0 mm 16,3 km/h (3 Bft) W 270 -0,5 C 10,6 km/h (2 Bft)
09.02.2016 23:00 1,6 C 0,5 C 86 % 995,4 hPa 0,0 mm 16,8 km/h (3 Bft) W 270 -0,5 C 17,3 km/h (3 Bft)
09.02.2016 23:04 1,6 C 0,5 C 86 % 995,6 hPa 0,0 mm 17,3 km/h (3 Bft) NW 315 -0,5 C 24,1 km/h (4 Bft)
09.02.2016 23:06 1,6 C 0,1 C 86 % 995,6 hPa 0,0 mm 17,3 km/h (3 Bft) NW 315 -0,5 C 24,1 km/h (4 Bft)
09.02.2016 23:10 1,5 C 0,4 C 86 % 995,6 hPa 0,0 mm 17,6 km/h (3 Bft) SW 225 -0,6 C 28,7 km/h (4 Bft)
09.02.2016 23:15 1,4 C 0,3 C 86 % 995,6 hPa 0,0 mm 19,2 km/h (3 Bft) W 270 -0,7 C 32,6 km/h (5 Bft)
09.02.2016 23:20 1,2 C 0,0 C 86 % 995,6 hPa 0,7 mm 18,6 km/h (3 Bft) W 270 -0,9 C 17,9 km/h (3 Bft)
09.02.2016 23:25 1,1 C 0,0 C 86 % 995,1 hPa 0,0 mm 17,1 km/h (3 Bft) W-NW 292 -1,0 C 18,4 km/h (3 Bft)
09.02.2016 23:30 1,2 C 0,0 C 86 % 995,1 hPa 0,0 mm 19,2 km/h (3 Bft) W-SW 247 -0,9 C 19,7 km/h (3 Bft)
09.02.2016 23:35 1,3 C -0,4 C 86 % 995,1 hPa 0,0 mm 20,7 km/h (4 Bft) W-SW 247 -0,8 C 24,1 km/h (4 Bft)
09.02.2016 23:40 1,4 C 0,2 C 86 % 995,1 hPa 0,0 mm 18,9 km/h (3 Bft) W 270 -0,7 C 24,9 km/h (4 Bft)
09.02.2016 23:45 1,4 C 0,2 C 85 % 994,3 hPa 0,0 mm 15,8 km/h (3 Bft) W-SW 247 -0,8 C 16,8 km/h (3 Bft)
09.02.2016 23:50 1,5 C 0,4 C 84 % 994,3 hPa 0,0 mm 13,7 km/h (3 Bft) SW 225 -0,9 C 14,8 km/h (3 Bft)
09.02.2016 23:55 1,6 C 0,5 C 83 % 994,3 hPa 0,0 mm 12,9 km/h (3 Bft) W-SW 247 -1,0 C 14,0 km/h (3 Bft)
_ Min-Zeit 08:05 23:35 18:20 19:40 - 19:45 - - 18:00 20:00
Minimum _ 0,4 C -0,4 C 36 % 993,0 hPa - 0,0 km/h (0 Bft) - - -2,8 C 0,0 km/h (0 Bft)
_ Max-Zeit 15:30 12:10 08:50 02:00 23:20 21:20 - - 13:40 21:25
Maximum _ 12,8 C 13,8 C 88 % 1014,1 hPa 0,7 mm 30,0 km/h
N-NW (5 Bft)
- - 3,5 C 69,9 km/h
NW (8 Bft)
Durchschnitt _ 6,2 C 6,4 C 69 % 1001,6 hPa #4,8 mm 7,3 km/h (2 Bft) W-SW - 0,4 C 9,8 km/h (2 Bft)